[[{"header":{"parameterUnit":"m.s-1","parameterCategory":1,"la1":30.2992,"la2":30.254,"lo1":-89.0895,"lo2":-89.0443,"dy":0.0025,"dx":0.0025,"nx":19,"ny":19,"refTime":"2026-05-20T21:00:00:Z","depth":0,"parameterNumber":2,"parameterNumberName":"U-component_of_WINDS"},"data":[0,0,0,-1.2582,-1.2583,-1.2626,-1.2626,-1.2672,-1.2673,0,0,0,0,0,0,0,0,0,0,0,-1.2565,-1.2566,-1.2582,-1.2583,-1.2626,-1.2626,-1.2672,-1.2673,0,0,0,0,0,0,0,0,0,0,0,-1.2565,-1.2566,-1.2566,-1.2583,-1.2626,-1.2626,-1.2672,-1.2643,0,0,0,0,0,0,0,0,0,0,-1.2603,-1.2583,-1.2566,-1.2566,-1.2584,-1.2626,-1.2626,-1.2641,-1.2645,-1.265,0,-1.2654,0,-1.2664,-1.2675,-1.2676,0,0,0,-1.2586,-1.2581,-1.2596,-1.2566,-1.2584,-1.2626,-1.2607,-1.2643,-1.2647,-1.2654,-1.2655,-1.2657,-1.2665,-1.2676,-1.2676,-1.27,-1.27,0,0,-1.2584,-1.2571,-1.2594,-1.2598,-1.2592,-1.2606,-1.2609,-1.2646,-1.2645,-1.2655,-1.2658,-1.2666,-1.2676,-1.2676,-1.27,-1.27,0,0,0,-1.2575,-1.2569,-1.2584,-1.2596,-1.2604,-1.2607,-1.261,-1.2644,-1.265,-1.2659,-1.2666,-1.2676,-1.2677,-1.27,-1.27,-1.2687,0,0,0,-1.2574,-1.2564,-1.2582,-1.2575,-1.2604,-1.2625,-1.2607,-1.2647,-1.2652,-1.2666,-1.2676,-1.2677,-1.27,-1.27,-1.2688,-1.2683,0,0,0,-1.2564,-1.2563,-1.2568,-1.2574,-1.2592,-1.2624,-1.2633,-1.2648,-1.2656,-1.2676,-1.2677,-1.27,-1.27,-1.2688,-1.2684,-1.2686,0,0,0,-1.255,-1.2554,-1.2567,-1.2576,-1.2592,-1.2617,-1.2633,-1.2652,-1.2667,-1.2676,-1.27,-1.27,-1.2688,-1.2684,-1.2686,-1.2685,-1.2684,0,0,-1.2548,-1.2554,-1.256,-1.2573,-1.2592,-1.2611,-1.2629,-1.2654,-1.2667,-1.2688,-1.2689,-1.2688,-1.2684,-1.2686,-1.2681,-1.268,0,0,0,-1.2555,-1.2559,-1.2567,-1.2582,-1.2603,-1.262,-1.2644,-1.2654,-1.2673,-1.2676,-1.269,-1.2688,-1.269,-1.269,-1.2689,-1.2691,-1.27,-1.27,-1.27,-1.2534,-1.2552,-1.2563,-1.2587,-1.2601,-1.2627,-1.2639,-1.2657,-1.2669,-1.2673,-1.2679,-1.2674,-1.2673,-1.2673,-1.2675,-1.268,-1.268,-1.268,-1.268,-1.2533,-1.2542,-1.2561,-1.2579,-1.2598,-1.2613,-1.2638,-1.2647,-1.2663,-1.267,-1.2673,-1.2678,-1.2671,-1.2674,-1.2679,-1.2679,-1.2679,-1.2679,-1.2679,-1.2521,-1.2528,-1.2541,-1.2565,-1.2582,-1.2605,-1.262,-1.2637,-1.2652,-1.2655,-1.2663,-1.2663,-1.2666,-1.2658,-1.2658,-1.2658,-1.2658,-1.2658,-1.2658,-1.2503,-1.2518,-1.2529,-1.2553,-1.2565,-1.2583,-1.2611,-1.2623,-1.264,-1.2651,-1.2651,-1.2664,-1.2667,-1.2667,-1.2657,-1.2657,-1.2658,-1.2658,-1.2658,-1.2495,-1.25,-1.2517,-1.253,-1.2559,-1.2575,-1.2596,-1.262,-1.2633,-1.264,-1.2652,-1.2652,-1.2658,-1.2659,-1.266,-1.2649,-1.2649,-1.2649,-1.2649,-1.2484,-1.2489,-1.2512,-1.2531,-1.2551,-1.2573,-1.2592,-1.2614,-1.2637,-1.2646,-1.265,-1.2652,-1.2652,-1.2658,-1.2659,-1.266,-1.2649,-1.2649,-1.2649,-1.248,-1.2489,-1.2502,-1.2526,-1.2551,-1.2572,-1.259,-1.2611,-1.2638,-1.2649,-1.2653,-1.2653,-1.2657,-1.2657,-1.2667,-1.2668,-1.267,0,0]},{"header":{"parameterUnit":"m.s-1","parameterCategory":1,"la1":30.2992,"la2":30.254,"lo1":-89.0895,"lo2":-89.0443,"dy":0.0025,"dx":0.0025,"nx":19,"ny":19,"refTime":"2026-05-20T21:00:00:Z","depth":0,"parameterNumber":3,"parameterNumberName":"V-component_of_WINDS"},"data":[0,0,0,2.133,2.1331,2.1381,2.1381,2.1447,2.1447,0,0,0,0,0,0,0,0,0,0,0,2.1318,2.1319,2.133,2.1332,2.1381,2.1381,2.1447,2.1447,0,0,0,0,0,0,0,0,0,0,0,2.1318,2.1319,2.1319,2.1332,2.1381,2.1381,2.1447,2.1408,0,0,0,0,0,0,0,0,0,0,2.1359,2.1351,2.1318,2.1319,2.1332,2.1381,2.1381,2.1406,2.141,2.1426,0,2.1441,0,2.1445,2.1452,2.1452,0,0,0,2.1329,2.1347,2.1359,2.1319,2.1333,2.1381,2.1358,2.1409,2.1413,2.1431,2.1442,2.1444,2.1447,2.1453,2.1453,2.1552,2.1553,0,0,2.1326,2.1328,2.1355,2.1362,2.1356,2.1357,2.136,2.1411,2.1422,2.1442,2.1446,2.1448,2.1453,2.1454,2.1551,2.1552,0,0,0,2.132,2.1326,2.1336,2.1359,2.1368,2.1358,2.1362,2.142,2.1423,2.1446,2.1448,2.1453,2.1454,2.1551,2.1552,2.1582,0,0,0,2.1318,2.1323,2.1335,2.1337,2.1368,2.1395,2.1369,2.142,2.1426,2.1448,2.1453,2.1455,2.155,2.1551,2.158,2.1596,0,0,0,2.1314,2.1322,2.133,2.1337,2.1358,2.1394,2.14,2.1421,2.1427,2.1452,2.1455,2.155,2.1551,2.1578,2.1593,2.1623,0,0,0,2.1309,2.1356,2.1331,2.1383,2.1358,2.1413,2.14,2.1441,2.1466,2.1454,2.155,2.1552,2.1578,2.1591,2.1621,2.1649,2.1661,0,0,2.1369,2.1363,2.1394,2.1373,2.1434,2.1406,2.147,2.1491,2.1491,2.1531,2.1534,2.1581,2.1593,2.1623,2.1727,2.1736,0,0,0,2.1413,2.1435,2.1451,2.1476,2.1495,2.1511,2.1523,2.153,2.1565,2.1513,2.16,2.1607,2.1624,2.1638,2.1646,2.1661,2.1558,2.1558,2.1558,2.1499,2.1498,2.1549,2.1554,2.1579,2.1591,2.161,2.1623,2.1613,2.1634,2.1646,2.1709,2.1725,2.1731,2.1746,2.166,2.166,2.166,2.1661,2.1586,2.1618,2.1606,2.1651,2.1649,2.1686,2.1699,2.1692,2.1726,2.17,2.1715,2.1687,2.1741,2.1755,2.1663,2.1662,2.1662,2.1662,2.1662,2.1642,2.1657,2.1667,2.1704,2.1732,2.1735,2.1769,2.1766,2.1763,2.1778,2.1791,2.179,2.1789,2.1785,2.1785,2.1785,2.1785,2.1785,2.1785,2.1697,2.1707,2.1737,2.1761,2.1777,2.1797,2.181,2.1825,2.1842,2.1836,2.1837,2.1825,2.1747,2.1727,2.1789,2.1788,2.1788,2.1788,2.1787,2.1785,2.1765,2.1811,2.1827,2.1855,2.1884,2.188,2.1912,2.1924,2.194,2.1926,2.1869,2.1862,2.1856,2.1839,2.1926,2.1926,2.1926,2.1926,2.1833,2.183,2.1876,2.1903,2.1928,2.1929,2.198,2.1991,2.1998,2.2005,2.1992,2.197,2.1964,2.1961,2.1952,2.1937,2.2047,2.2047,2.2047,2.1887,2.1887,2.1931,2.194,2.1961,2.198,2.2028,2.2058,2.2062,2.2052,2.2011,2.2006,2.1971,2.1959,2.1948,2.1935,2.1907,0,0]}]]